Temperature
12 11 11 11 10 10 10 10 10 10 11 11 11 11 11 11 12 12 12 12 13 13 13 13 14 14 14 14 14 15 15 15 15 15 15 16 16 16 17 17 17 17 16
12 11 11 11 10 10 10 10 10 10 10 10 11 11 11 11 11 11 12 12 12 13 13 13 13 14 14 14 14 14 14 14 14 15 15 15 15 16 16 16 16 16 16
12 11 11 11 10 10 10 10 10 10 10 10 10 11 11 11 11 11 11 12 12 12 12 13 13 13 13 14 14 14 14 14 14 14 14 15 15 15 15 15 15 15 15
12 11 11 11 10 10 10 10 10 10 10 10 10 10 11 11 11 11 11 11 12 12 12 12 13 13 13 13 14 14 14 14 14 14 14 14 14 14 15 15 15 15 15
12 11 11 11 10 10 10 10 10 10 10 10 10 10 11 11 11 11 11 11 11 12 12 12 13 13 13 13 13 14 13 13 14 14 14 14 14 14 14 14 14 14 14
12 12 11 11 10 10 10 10 10 10 10 10 10 10 10 10 11 11 11 11 11 12 12 12 12 13 13 13 13 13 13 13 13 13 13 13 13 14 14 14 14 13 13
12 12 11 11 10 10 10 10 10 10 10 10 10 10 10 10 11 11 11 11 11 11 12 12 12 12 13 13 13 13 13 13 13 13 13 13 13 13 13 13 13 13 13
12 12 11 11 11 10 10 10 10 10 10 10 10 10 10 10 10 11 11 11 11 11 11 11 12 12 12 13 13 13 13 13 13 13 13 13 13 13 13 13 13 13 12
13 12 12 11 11 11 10 10 10 10 10 10 10 10 10 10 10 11 11 11 11 11 11 11 12 12 12 12 12 13 13 13 13 13 13 13 13 13 13 13 13 12 12
13 13 12 12 11 11 11 11 10 10 10 10 10 10 10 10 10 11 11 11 11 11 11 11 11 12 12 12 12 12 13 13 13 13 13 13 13 13 13 13 13 12 12
14 13 13 12 12 12 11 11 11 11 10 10 10 10 10 10 10 11 11 11 11 11 11 11 11 12 12 12 12 12 12 13 13 13 13 12 12 12 12 12 12 12 12
14 14 13 13 12 12 12 12 11 11 11 10 10 10 10 10 10 11 11 11 11 11 11 11 11 12 12 12 12 12 12 12 12 12 12 12 12 12 12 12 12 12 12
14 14 14 13 13 13 12 12 11 11 11 11 11 10 10 10 10 11 11 11 11 11 11 11 11 11 12 12 12 12 12 12 12 12 12 12 12 12 12 12 12 11 11
15 14 14 14 13 13 13 12 12 11 11 11 11 11 11 10 10 10 11 11 11 11 11 11 11 11 11 11 11 12 11 12 12 12 11 11 11 11 11 11 11 11 11
15 14 14 14 14 13 13 13 13 12 12 11 11 11 11 11 11 11 11 11 11 11 11 11 11 11 11 11 11 11 11 11 11 11 11 11 11 11 11 11 11 11 11
14 14 14 14 14 14 13 13 13 13 13 12 12 12 11 11 11 11 11 11 11 11 11 11 11 11 11 11 11 11 11 11 11 11 11 11 11 11 11 11 11 11 11
14 14 14 14 13 13 13 13 13 13 13 13 13 12 12 12 12 11 11 11 11 11 11 11 11 11 11 11 11 11 11 11 11 11 11 11 11 11 11 11 11 11 11
13 13 13 13 13 13 13 13 13 13 13 13 13 13 12 12 12 12 12 11 11 11 11 11 11 11 11 11 11 11 11 11 11 11 11 11 11 11 11 10 10 10 10
12 12 13 13 13 13 13 13 13 13 13 13 13 13 13 13 12 12 12 12 11 11 11 11 11 11 11 11 11 11 11 11 11 11 11 11 11 11 10 10 10 10 10
11 11 12 12 12 12 12 12 12 12 12 13 13 13 13 13 12 12 12 12 12 12 11 11 11 11 11 11 11 11 11 11 11 11 11 11 11 11 10 10 10 10 10
9 10 10 10 10 10 11 11 11 12 12 12 12 13 13 12 12 12 12 12 12 12 12 11 11 11 11 11 11 11 11 11 11 11 11 11 11 10 10 10 10 10 10
8 8 8 8 9 9 9 10 10 11 11 11 12 12 12 12 12 12 12 12 12 12 12 12 12 12 12 11 11 11 11 11 11 11 11 11 10 10 10 10 10 10 10
7 7 7 7 7 8 8 8 9 9 10 10 11 11 11 12 12 12 12 12 12 12 12 12 12 12 12 12 11 11 11 11 11 11 10 10 10 10 10 10 10 10 9
6 6 6 6 6 6 6 7 7 7 8 9 9 10 10 11 11 11 12 12 12 12 12 12 12 12 12 12 12 12 11 11 11 11 10 10 10 10 10 10 10 9 9
5 5 5 5 5 5 5 6 6 6 6 7 8 8 9 9 10 10 11 11 11 11 12 12 12 12 12 12 12 12 12 11 11 11 10 10 10 10 10 10 9 9 9
4 4 4 4 4 4 4 4 5 5 5 5 6 6 7 8 9 9 10 10 11 11 11 11 12 12 12 12 12 12 12 12 11 11 10 10 10 10 10 9 9 9 9
Wind_Speed
7 7 7 7 8 8 8 9 9 9 10 9 8 8 7 6 6 6 6 6 6 7 7 9 10 10 9 9 9 10 9 8 9 5 3 5 8 9 8 10 11 12 14
6 7 7 7 8 8 9 9 9 10 9 9 9 8 7 6 6 6 6 5 6 7 8 8 9 8 10 9 9 11 10 9 8 8 5 6 7 8 9 9 8 9 10
5 6 7 7 8 8 9 9 10 10 9 9 9 8 8 7 6 5 6 6 6 7 7 8 8 8 10 9 10 10 9 9 8 7 7 5 4 6 8 7 8 7 9
4 5 6 7 7 8 8 9 9 10 9 9 9 9 8 7 7 6 6 6 6 6 7 7 8 8 9 10 10 10 9 9 9 8 7 7 5 6 8 8 7 6 6
4 5 6 6 7 7 8 8 9 8 9 9 9 9 8 7 7 8 8 7 6 6 6 6 7 7 8 8 8 9 10 9 8 8 8 7 7 8 9 7 8 7 6
4 5 5 6 6 7 8 8 8 8 8 8 8 8 8 7 9 10 9 7 6 6 6 6 6 8 9 10 11 11 11 12 11 9 8 9 9 9 8 9 9 8 5
5 5 5 6 6 7 7 8 8 8 8 9 8 8 8 8 10 11 11 8 6 5 6 5 5 5 7 8 10 12 13 13 12 11 11 11 10 11 11 11 10 9 5
5 5 5 5 6 6 7 8 8 8 8 8 8 8 8 8 10 12 13 8 5 5 5 5 6 6 6 6 8 9 11 11 12 12 11 10 10 10 11 11 10 8 7
5 6 5 5 6 7 7 7 7 8 8 8 8 8 8 8 9 12 13 7 5 5 4 5 5 6 4 6 8 9 9 8 7 8 7 8 10 12 11 10 11 11 7
6 6 5 5 6 7 7 7 7 7 7 7 7 7 8 8 9 12 12 6 5 5 4 4 4 4 4 5 7 8 8 6 7 7 8 10 12 14 16 13 12 11 8
5 6 6 6 6 7 7 6 7 7 7 7 7 7 7 7 7 9 11 6 6 5 5 4 3 3 4 4 6 6 6 6 6 7 7 8 9 9 10 9 9 10 10
6 7 8 8 7 6 6 7 7 7 7 7 7 7 6 5 5 7 9 7 8 6 5 5 3 2 2 2 2 4 6 6 5 6 6 6 7 7 7 8 8 6 5
8 9 9 9 8 7 7 7 7 6 6 7 6 6 6 6 4 4 6 6 6 5 4 5 4 3 1 1 5 6 5 5 5 6 6 5 5 6 7 7 8 8 8
10 10 10 9 9 8 7 7 7 6 6 6 6 6 6 6 5 5 5 4 3 3 2 2 2 3 3 4 4 4 3 3 4 5 6 5 5 6 7 8 8 8 7
11 11 10 10 10 9 8 7 8 8 7 7 7 6 6 6 5 6 6 5 5 4 4 2 1 1 2 3 3 3 3 4 4 5 6 6 6 7 7 7 7 7 6
10 10 9 9 8 8 9 9 11 12 9 11 11 10 8 7 6 5 6 7 7 6 4 2 1 1 1 1 2 3 3 4 5 5 6 6 7 7 7 6 6 7 8
10 10 9 9 9 9 9 9 9 9 14 14 14 13 13 10 8 7 7 7 6 4 3 3 2 2 2 2 2 3 3 4 4 5 6 6 7 7 8 7 7 7 7
10 9 9 9 9 10 10 10 9 10 9 8 11 15 14 13 11 9 7 6 6 5 5 4 3 3 3 4 4 4 4 5 5 6 7 7 8 8 8 8 7 8 8
11 9 9 9 9 9 10 10 10 11 11 10 8 8 12 12 12 11 8 7 7 6 6 5 5 5 5 5 5 5 5 6 6 6 7 8 8 8 8 8 7 9 8
11 12 12 10 9 9 9 9 10 11 11 11 10 9 7 7 8 8 9 9 9 8 7 7 6 6 6 6 6 6 7 7 7 7 7 7 8 8 8 9 8 9 8
12 12 13 11 10 9 9 10 10 11 11 11 11 10 9 10 10 11 10 10 10 10 9 9 8 8 8 7 8 9 9 8 8 8 8 8 8 8 8 8 9 9 8
12 12 12 12 11 11 11 11 10 11 12 13 12 11 10 11 12 11 11 11 11 11 10 9 9 9 9 9 10 10 10 10 10 10 9 9 9 9 9 9 9 9 9
13 13 13 12 12 13 12 11 11 11 12 12 12 12 10 11 12 12 13 12 11 11 11 11 11 10 10 11 11 11 11 11 11 11 11 10 10 10 10 10 11 11 11
13 13 13 13 13 13 13 13 13 13 13 13 12 12 12 12 12 13 13 12 12 12 12 12 13 15 16 13 11 12 12 11 12 11 14 12 12 11 11 11 11 13 12
12 13 13 13 13 13 13 13 13 14 14 13 13 13 13 13 13 13 13 13 14 13 15 14 13 15 18 20 17 15 14 14 13 11 12 12 13 13 12 13 12 12 13
12 12 12 12 12 13 13 14 14 15 14 14 14 14 14 14 13 13 12 12 12 13 14 14 16 18 18 18 20 18 17 18 18 15 13 12 13 13 14 12 14 13 13
Wind_Direction
327 330 330 334 334 334 338 339 336 335 333 330 326 323 318 307 299 288 277 268 260 253 244 238 232 225 219 216 214 212 214 216 224 220 202 202 198 200 185 194 188 182 184
323 326 329 331 334 336 340 340 339 339 337 334 333 330 325 316 305 294 286 278 271 260 251 244 236 226 220 216 213 213 212 212 215 213 200 199 204 194 183 180 174 175 173
320 325 330 335 339 339 340 340 339 340 339 338 338 335 330 323 313 304 296 286 275 268 257 246 240 231 225 218 214 212 210 210 212 210 201 189 189 180 170 164 163 157 156
316 324 332 337 339 336 340 339 340 342 342 342 340 338 335 332 327 323 309 294 283 273 263 252 245 238 233 224 217 213 208 206 205 204 197 185 177 174 169 163 157 154 152
310 322 332 334 334 333 336 336 340 342 341 342 339 339 340 336 339 333 320 303 288 279 267 255 250 247 250 240 228 215 209 206 202 201 198 190 182 175 177 171 163 150 146
303 320 328 324 330 330 332 335 338 340 341 342 340 341 340 343 341 328 318 308 296 284 275 265 252 239 236 236 238 231 220 211 206 202 201 196 190 181 170 167 162 159 160
294 307 315 320 324 329 332 333 334 335 339 338 339 338 336 342 340 333 327 311 300 293 283 275 264 251 239 237 225 222 221 217 215 210 205 199 189 182 173 173 174 168 157
290 297 305 310 316 322 327 330 330 333 335 332 333 333 330 335 340 333 323 305 299 292 286 280 271 264 254 248 232 223 220 215 212 213 213 204 192 182 180 176 167 147 127
280 288 297 304 310 315 321 325 331 329 327 326 330 328 328 332 345 336 325 310 301 293 287 287 285 271 264 256 242 228 219 212 205 207 205 192 175 171 167 161 157 155 152
274 277 284 292 298 305 313 318 321 320 319 318 322 322 325 326 344 338 331 315 310 307 298 290 289 285 278 255 239 224 212 197 184 178 177 172 172 168 167 174 170 166 156
272 268 269 273 280 291 300 305 308 314 316 316 317 318 321 324 331 340 338 325 320 315 309 301 295 290 288 265 247 224 194 179 176 170 167 163 164 168 173 176 177 173 168
264 260 262 266 271 278 282 291 300 306 308 311 315 324 323 324 328 337 337 332 324 312 311 310 322 351 313 279 219 148 144 155 159 158 159 159 160 162 163 164 161 157 157
264 261 263 265 263 265 272 280 290 295 299 309 316 320 325 327 324 313 315 320 325 321 334 2 7 13 21 110 121 129 150 155 147 149 151 146 145 145 140 135 126 116 106
269 268 266 265 266 265 262 269 277 288 293 299 308 313 317 318 327 335 329 319 303 306 331 23 65 60 64 75 100 111 115 128 137 136 132 127 129 138 142 142 140 135 123
280 274 270 266 266 268 264 257 263 267 270 277 292 298 303 306 336 341 323 324 330 335 327 311 337 73 93 91 85 90 102 118 125 134 137 138 137 139 143 147 150 151 149
295 290 283 275 268 264 267 264 232 237 243 237 247 266 276 270 292 295 299 306 311 311 300 277 258 137 120 125 121 120 123 130 140 143 144 146 147 145 144 148 159 162 157
305 300 293 284 277 270 266 268 272 245 227 235 238 241 248 268 266 267 277 290 286 278 267 259 231 203 187 177 164 157 149 148 149 152 154 156 156 155 155 159 164 163 159
320 312 304 293 284 277 272 269 267 270 269 258 232 227 234 243 248 250 258 272 253 232 242 243 232 213 206 199 186 175 166 162 165 165 164 165 164 164 165 169 171 169 165
334 328 321 309 297 286 278 273 269 266 265 265 263 232 218 228 232 234 232 242 250 245 235 230 227 219 212 208 198 188 184 180 176 174 169 169 171 172 173 175 171 164 173
342 337 329 318 311 303 293 282 274 270 268 265 261 257 233 215 231 225 218 228 238 241 236 230 224 221 213 208 202 197 194 189 186 185 178 178 179 181 179 179 178 177 185
346 343 338 329 324 319 311 300 289 280 275 271 268 261 242 238 243 243 235 229 230 234 232 229 223 218 215 210 208 205 204 199 195 195 189 187 187 187 187 187 187 189 189
350 349 347 342 336 331 324 316 309 298 288 282 278 267 225 238 248 247 243 238 233 232 231 227 224 220 215 211 210 210 210 207 201 198 197 194 192 194 193 192 191 191 192
354 352 350 348 344 339 333 329 323 316 308 299 290 282 266 252 250 249 248 245 239 233 227 223 225 222 217 217 216 215 215 212 207 202 200 198 198 199 199 199 198 196 197
354 353 351 350 349 346 342 337 333 328 322 315 307 297 286 274 265 258 253 249 242 236 229 224 224 223 219 215 216 217 219 215 208 206 206 205 202 203 202 203 204 203 203
351 350 350 349 348 346 343 341 337 334 329 324 318 312 304 293 282 274 265 255 247 241 234 228 226 226 225 219 215 215 207 200 204 206 203 208 209 206 206 206 205 204 204
343 344 344 344 343 342 341 339 337 334 330 327 324 319 314 306 297 287 279 270 259 248 242 235 230 227 226 223 221 215 197 191 195 202 207 208 209 209 206 208 207 206 206
Height
1522 1519 1516 1513 1509 1506 1503 1499 1496 1493 1489 1486 1484 1481 1479 1478 1477 1476 1476 1476 1476 1476 1477 1478 1479 1481 1483 1485 1488 1491 1494 1497 1500 1503 1506 1509 1512 1515 1517 1521 1524 1527 1530
1521 1518 1515 1512 1509 1505 1502 1499 1495 1492 1488 1485 1483 1480 1478 1476 1475 1474 1473 1473 1473 1473 1473 1474 1475 1476 1478 1480 1483 1485 1488 1491 1495 1497 1500 1503 1506 1509 1512 1515 1519 1522 1525
1519 1516 1514 1511 1508 1505 1501 1498 1495 1491 1488 1485 1482 1479 1477 1475 1473 1472 1471 1470 1470 1470 1470 1470 1471 1472 1474 1476 1478 1480 1483 1486 1489 1492 1495 1498 1501 1504 1507 1510 1514 1517 1520
1518 1515 1513 1510 1507 1504 1501 1497 1494 1491 1487 1484 1481 1478 1476 1474 1472 1470 1469 1468 1467 1467 1467 1467 1467 1468 1470 1472 1473 1475 1478 1481 1483 1486 1489 1492 1495 1498 1502 1505 1509 1512 1515
1517 1515 1512 1509 1506 1503 1500 1497 1493 1490 1487 1483 1480 1477 1475 1473 1471 1469 1467 1466 1465 1464 1464 1464 1464 1464 1466 1467 1469 1471 1474 1476 1478 1480 1484 1486 1489 1492 1496 1500 1503 1507 1511
1516 1514 1511 1508 1505 1502 1499 1496 1493 1489 1486 1483 1480 1477 1474 1471 1469 1467 1465 1464 1463 1462 1461 1461 1461 1461 1462 1463 1465 1467 1469 1471 1474 1476 1478 1481 1483 1487 1491 1494 1498 1502 1506
1515 1513 1510 1507 1504 1501 1498 1495 1492 1489 1486 1482 1479 1476 1473 1470 1468 1466 1464 1462 1461 1460 1458 1458 1458 1458 1458 1459 1461 1462 1464 1467 1469 1472 1473 1475 1478 1481 1485 1489 1493 1497 1501
1514 1511 1509 1506 1503 1500 1497 1494 1491 1488 1485 1481 1478 1475 1472 1469 1466 1464 1462 1460 1459 1457 1456 1455 1455 1454 1455 1456 1457 1458 1460 1462 1464 1467 1470 1472 1475 1478 1481 1485 1489 1494 1498
1512 1510 1508 1505 1502 1499 1497 1494 1490 1487 1484 1481 1478 1474 1471 1468 1465 1462 1460 1458 1457 1455 1454 1453 1452 1452 1451 1452 1453 1454 1456 1458 1460 1463 1466 1468 1471 1475 1478 1482 1485 1490 1494
1510 1508 1506 1503 1501 1498 1495 1493 1490 1486 1483 1480 1477 1473 1470 1467 1464 1461 1458 1457 1455 1453 1452 1451 1449 1448 1448 1448 1449 1451 1452 1454 1456 1459 1461 1464 1467 1470 1474 1478 1481 1486 1489
1508 1506 1503 1501 1499 1496 1494 1491 1488 1485 1482 1479 1476 1473 1469 1466 1463 1460 1458 1456 1454 1452 1450 1449 1447 1446 1446 1445 1446 1448 1449 1451 1453 1456 1458 1461 1464 1468 1471 1475 1479 1483 1487
1505 1503 1501 1499 1497 1495 1492 1490 1487 1484 1481 1478 1475 1472 1469 1466 1463 1460 1457 1455 1453 1451 1449 1447 1446 1444 1444 1444 1444 1445 1447 1449 1451 1453 1456 1459 1462 1465 1469 1473 1477 1481 1485
1502 1500 1499 1497 1495 1492 1490 1488 1486 1483 1480 1477 1475 1472 1469 1466 1462 1459 1457 1454 1452 1450 1448 1446 1445 1444 1444 1443 1444 1445 1446 1448 1450 1452 1454 1457 1461 1464 1467 1471 1475 1479 1483
1498 1497 1496 1494 1492 1490 1488 1486 1483 1481 1479 1476 1473 1470 1468 1465 1462 1459 1457 1455 1453 1451 1449 1447 1446 1445 1445 1444 1444 1445 1447 1448 1450 1452 1454 1457 1460 1463 1466 1470 1474 1478 1482
1494 1493 1492 1490 1488 1486 1484 1482 1480 1478 1476 1474 1471 1469 1467 1464 1462 1459 1457 1455 1453 1451 1450 1449 1447 1447 1446 1446 1446 1447 1447 1449 1451 1453 1455 1457 1459 1462 1466 1469 1473 1477 1481
1490 1489 1487 1486 1484 1482 1480 1478 1476 1475 1473 1471 1469 1467 1464 1463 1460 1459 1457 1455 1454 1452 1451 1450 1449 1448 1448 1448 1448 1448 1449 1450 1452 1453 1456 1458 1460 1463 1466 1469 1473 1477 1480
1486 1484 1482 1481 1479 1477 1476 1474 1472 1471 1469 1467 1465 1464 1462 1460 1459 1457 1456 1455 1453 1452 1451 1451 1450 1450 1449 1449 1450 1450 1451 1452 1453 1455 1457 1459 1461 1464 1466 1469 1472 1476 1479
1482 1479 1477 1475 1473 1472 1471 1469 1468 1466 1465 1463 1461 1460 1459 1457 1456 1455 1454 1453 1452 1451 1451 1450 1450 1450 1450 1450 1450 1451 1452 1452 1454 1455 1457 1460 1462 1464 1467 1469 1472 1474 1477
1478 1475 1472 1470 1468 1467 1465 1463 1462 1461 1459 1458 1457 1455 1454 1453 1453 1452 1451 1450 1450 1449 1449 1448 1448 1448 1449 1449 1450 1450 1451 1453 1454 1455 1457 1459 1461 1463 1466 1468 1471 1473 1476
1474 1471 1468 1466 1463 1462 1460 1458 1457 1455 1454 1453 1452 1451 1450 1449 1448 1447 1446 1446 1446 1446 1446 1446 1446 1446 1446 1447 1447 1448 1450 1451 1452 1454 1456 1458 1460 1462 1464 1467 1469 1471 1474
1472 1468 1465 1462 1460 1458 1456 1454 1452 1450 1449 1447 1446 1446 1445 1444 1443 1442 1442 1441 1440 1441 1441 1441 1442 1442 1442 1443 1444 1445 1447 1448 1450 1452 1453 1455 1457 1460 1462 1464 1467 1469 1471
1470 1467 1463 1460 1457 1454 1452 1450 1447 1445 1443 1442 1440 1439 1438 1437 1436 1436 1436 1435 1435 1435 1435 1436 1436 1437 1437 1438 1440 1441 1443 1445 1446 1448 1450 1452 1454 1456 1458 1461 1463 1465 1468
1469 1465 1462 1458 1455 1451 1448 1446 1443 1441 1439 1437 1435 1434 1432 1430 1429 1429 1429 1429 1428 1428 1428 1429 1430 1431 1432 1433 1434 1436 1438 1439 1441 1443 1445 1447 1449 1452 1454 1456 1458 1461 1463
1468 1464 1461 1457 1453 1450 1446 1443 1440 1437 1434 1432 1430 1428 1426 1425 1423 1422 1422 1421 1421 1421 1421 1421 1422 1423 1424 1425 1427 1429 1431 1433 1435 1437 1439 1442 1444 1446 1449 1451 1453 1456 1458
1467 1463 1460 1456 1452 1448 1444 1440 1437 1434 1430 1427 1424 1422 1420 1418 1416 1415 1414 1414 1413 1413 1413 1413 1413 1415 1416 1417 1419 1421 1423 1425 1428 1430 1432 1435 1437 1440 1442 1445 1447 1450 1452
1466 1462 1458 1454 1450 1446 1442 1438 1434 1430 1426 1423 1420 1416 1414 1411 1409 1407 1406 1405 1404 1404 1404 1404 1404 1405 1407 1409 1410 1413 1415 1418 1420 1423 1426 1428 1430 1433 1435 1438 1441 1443 1446